www.pogodaiklimat.ru

Погода и климат >> Архив погоды >> Индия >> Kozhikode


ПОГОДА в Kozhikode

  • Прогноз погоды в Kozhikode
  • Монитор погоды в Kozhikode
  • Климат города

АРХИВ ПОГОДЫ в Kozhikode

Время (UTC), дата Ветер
(напр.,м/с)
 
Видим.   Явления Облачность Т
(С)
Тd
(С)
f
(%)
Тe
(С)
Тes
(С)
Комфортность P
(гПа)
Po
(гПа)
Тmin
(С)
Tmax
(С)
R
(мм)
R24
(мм)
S
(см)
06 18.09 штиль 0 10 км 5/1 600 м
[Sc diur, vesp Ac As Ci sp]
+31.0 +25.4 72 +45 +64 опасность
перегрева
1011.0 1011.0
09 18.09 штиль 0 10 км 4/1 600 м
[Sc diur, vesp Ci sp]
+32.4 +25.1 65 +46 +64 опасность
перегрева
1008.7 1009.0
12 18.09 штиль 0 10 км 4/1 600 м
[Sc diur, vesp Ac trans Ci sp]
+30.4 +25.3 74 +44 +45 опасность
перегрева
1008.6 1009.0 +33.4
15 18.09 штиль 0 4000 м 4/1 600 м
[Sc diur, vesp Ci sp]
+28.2 +25.1 83 +41 +41 опасность
перегрева
1011.2 1011.0
18 18.09 штиль 0 4000 м 5/1 600 м
[Sc diur, vesp Ci sp]
+27.0 +24.7 87 +38 +38 очень
душно
1011.2 1011.0
00 19.09 штиль 0 4000 м 6/3 600 м
[Sc diur, vesp Ac trans Ci sp]
+25.6 +23.9 90 +35 +35 очень
душно
1009.6 1010.0
03 19.09 штиль 0 10 км 9/4 600 м
[Cb calv Ac As Ci sp]
+28.2 +24.2 79 +39 +42 очень
душно
1011.2 1011.0 +25.0 +33.4
06 19.09 штиль 0 10 км 8/3 600 м
[Cb calv Ac As Ci sp]
+31.6 +25.7 71 +47 +59 опасность
перегрева
1010.6 1011.0
09 19.09 штиль 0 10 км 6/3 600 м
[Sc diur, vesp Ac trans Ci sp]
+33.0 +25.7 66 +48 +60 опасность
перегрева
1008.2 1008.0
12 19.09 штиль 0 10 км 6/3 600 м
[Sc diur, vesp Ac trans Ci sp]
+30.6 +25.2 73 +44 +45 опасность
перегрева
1008.3 1008.0 +33.8
15 19.09 штиль 0 4000 м 9/3 600 м
[Sc diur, vesp Ac trans]
+27.8 +25.2 86 +40 +40 очень
душно
1009.1 1009.0
18 19.09 штиль 0 4000 м 9/3 600 м
[Sc diur, vesp Ac trans]
+27.2 +25.5 90 +40 +40 очень
душно
1008.9 1009.0
21 19.09 штиль 0 4000 м 9/3 600 м
[Sc diur, vesp Ac trans]
+26.4 +24.7 90 +37 +37 очень
душно
1006.9 1007.0
00 20.09 штиль 0 4000 м 6/1 600 м
[Sc diur, vesp Ac trans Ci sp]
+25.8 +24.4 92 +36 +36 очень
душно
1006.4 1006.0
03 20.09 штиль 0 10 км 6/1 600 м
[Sc diur, vesp Ac trans Ci fib]
+27.6 +24.6 84 +39 +44 очень
душно
1008.5 1009.0 +24.4 +33.8
06 20.09 штиль 0 10 км 5/1 600 м
[Sc diur, vesp Ci fib]
+31.6 +23.9 64 +43 +65 опасность
перегрева
1008.3 1008.0
09 20.09 З 1 10 км 3/0
[Ci sp]
+32.0 +23.0 59 +42 +59 опасность
перегрева
1005.9 1006.0
12 20.09 штиль 0 10 км 3/0
[Ci sp]
+30.0 +24.3 72 +42 +44 опасность
перегрева
1005.8 1006.0 +33.2
15 20.09 штиль 0 4000 м 3/0 600 м
[Ci sp]
+27.0 +24.1 84 +37 +37 очень
душно
1008.0 1008.0
18 20.09 штиль 0 4000 м 3/0
[Ci sp]
+26.0 +24.5 91 +36 +36 очень
душно
1009.4 1009.0
21 20.09 штиль 0 4000 м 3/0
[Ci sp]
+26.4 +24.7 90 +37 +37 очень
душно
1007.4 1007.0
00 21.09 штиль 0 4000 м 3/0
[Ci sp]
+25.8 +24.4 92 +36 +36 очень
душно
1007.1 1007.0
03 21.09 штиль 0 10 км 5/1 600 м
[Sc diur, vesp Ac trans Ci fib]
+27.8 +23.7 78 +38 +43 очень
душно
1008.7 1009.0 +24.6 +33.2
06 21.09 штиль 0 10 км 6/1 600 м
[Sc diur, vesp Ac trans Ci fib]
+31.6 +24.8 67 +45 +62 опасность
перегрева
1009.0 1009.0
09 21.09 штиль 0 10 км 3/1 600 м
[Sc diur, vesp Ci fib]
+33.0 +24.8 62 +46 +64 опасность
перегрева
1007.3 1007.0
12 21.09 штиль 0 10 км 3/0
[Ci sp]
+30.2 +22.9 65 +40 +42 очень
душно
1007.3 1007.0 +34.0
15 21.09 штиль 0 4000 м 5/0
[Ci sp]
+27.4 +25.6 90 +40 +40 очень
душно
1007.6 1008.0
18 21.09 штиль 0 4000 м 3/0
[Ci sp]
+27.0 +24.1 84 +37 +37 очень
душно
1009.1 1009.0
21 21.09 штиль 0 4000 м 3/0
[Ci sp]
+26.4 +24.7 90 +37 +37 очень
душно
1009.3 1009.0
00 22.09 штиль 0 4000 м 3/0
[Ci sp]
+25.6 +24.2 92 +35 +35 очень
душно
1009.2 1009.0
03 22.09 штиль 0 10 км 3/0
[Ci sp]
+26.2 +23.7 86 +36 +43 очень
душно
1011.0 1011.0 +24.4 +34.0
06 22.09 штиль 0 10 км 4/1 600 м
[Sc diur, vesp Ci fib]
+31.4 +25.5 71 +46 +68 опасность
перегрева
1011.5 1012.0
09 22.09 штиль 0 10 км 4/1 600 м
[Sc diur, vesp Ac trans Ci sp]
+32.8 +24.8 63 +46 +62 опасность
перегрева
1010.0 1010.0
12 22.09 штиль 0 10 км 9/3 600 м
[Sc diur, vesp Ac trans Ci sp]
+31.0 +25.4 72 +45 +46 опасность
перегрева
1009.2 1009.0 +33.2
15 22.09 штиль 0 4000 м 5/3 600 м
[Sc diur, vesp Ac trans]
+28.6 +24.9 80 +41 +41 опасность
перегрева
1010.9 1011.0
18 22.09 штиль 0 4000 м 9/3 600 м
[Sc diur, vesp Ac trans Ci fib]
+28.0 +25.2 85 +41 +41 опасность
перегрева
1012.4 1012.0
21 22.09 штиль 0 4000 м 6/3 600 м
[Sc diur, vesp Ac trans Ci fib]
+27.0 +24.1 84 +37 +37 очень
душно
1010.7 1011.0
00 23.09 штиль 0 4000 м 5/3 600 м
[Sc diur, vesp Ac trans]
+25.0 +24.2 95 +34 +34 очень
душно
1010.8 1011.0
03 23.09 штиль 0 10 км 5/3 600 м
[Sc diur, vesp Ac trans]
+28.6 +24.9 80 +41 +45 опасность
перегрева
1013.2 1013.0 +25.0 +33.0
06 23.09 штиль 0 10 км 3/3 600 м
[Sc diur, vesp]
+31.4 +23.8 64 +43 +61 опасность
перегрева
1013.2 1013.0
09 23.09 З 2 10 км 1/1 600 м
[Sc diur, vesp]
+33.6 +26.3 66 +50 +65 опасность
перегрева
1010.2 1010.0
12 23.09 З 1 10 км 8/3 600 м
[Cb cap Ci ing]
+31.4 +25.5 71 +46 +47 опасность
перегрева
1009.8 1010.0 +34.0
15 23.09 штиль 0 4000 м 8/3 600 м
[Sc diur, vesp Ac trans Ci sp]
+28.6 +24.9 80 +41 +41 опасность
перегрева
1011.7 1012.0
18 23.09 штиль 0 4000 м 8/3 600 м
[Sc diur, vesp Ac trans Ci sp]
+28.0 +24.9 83 +40 +40 очень
душно
1012.5 1013.0
21 23.09 штиль 0 4000 м зарница 9/4 600 м
[Cb calv Ac trans Ci sp]
+27.2 +24.0 83 +38 +38 очень
душно
1010.9 1011.0
00 24.09 штиль 0 4000 м слабая морось {дождь} 9/4 300 м
[Cu Sc Ac As Ci sp]
+25.6 +24.1 91 +35 +35 очень
душно
1011.5 1012.0 1
03 24.09 штиль 0 10 км в посл. час морось {дождь} 9/3 600 м
[Cu Sc Ac trans Cs]
+25.4 +24.2 93 +35 +38 очень
душно
1012.7 1013.0 +24.4 +34.0 2
06 24.09 З 2 10 км {дождь, морось} 6/3 600 м
[Sc diur, vesp Ac trans Ci sp]
+30.8 +23.9 67 +42 +54 опасность
перегрева
1012.2 1012.0
09 24.09 штиль 0 10 км 8/3 600 м
[Sc diur, vesp Ac trans Ci sp]
+32.4 +25.4 67 +47 +56 опасность
перегрева
1009.8 1010.0
12 24.09 штиль 0 10 км 9/3 600 м
[Cb cap Ac As Ci sp]
+29.6 +25.1 77 +43 +43 опасность
перегрева
1009.7 1010.0 +33.0
15 24.09 штиль 0 4000 м 6/3 600 м
[Sc diur, vesp Ac trans]
+27.8 +24.3 81 +39 +39 очень
душно
1011.7 1012.0
18 24.09 штиль 0 4000 м 6/3 600 м
[Sc diur, vesp Ac trans]
+27.0 +24.2 85 +38 +38 очень
душно
1012.2 1012.0
21 24.09 штиль 0 4000 м 6/3 600 м
[Sc diur, vesp Ac trans]
+27.0 +24.2 85 +38 +38 очень
душно
1010.9 1011.0
00 25.09 штиль 0 4000 м 6/3 600 м
[Sc diur, vesp Ac trans]
+25.6 +24.1 91 +35 +35 очень
душно
1010.7 1011.0
03 25.09 штиль 0 10 км 8/3 600 м
[Sc diur, vesp Ac trans Ci sp]
+27.4 +24.5 84 +39 +42 очень
душно
1011.2 1011.0 +25.0 +33.0

 

Местоположение метеостанции Kozhikode (Kerala, Индия): широта 11.25 долгота 75.78 высота над уровнем моря 5 м.

В архиве по умолчанию представлена погода в Kozhikode за последнюю неделю. Архивные данные за месяц целиком и за предыдущие месяцы, начиная с января 2011 года, Вы можете получить, выбрав интересующий диапазон дат из раскрывающегося списка и нажав кнопку "Ввод!".


*Определитесь, кто Вы:
робот инопланетянин человек

Внимание! Время в таблицах - всемирное. Для получения местного времени необходимо прибавить поправку, которая в Kozhikode равна 5.5 ч.

Смотрите также архив погоды в соседних городах и на ближайших метеорологических станциях:

Погода в Karipur (Kerala, Индия) (23 км)
Погода в Cannanore (Kerala, Индия) (81 км)
Погода в Thrissur (Kerala, Индия) (94 км)
Погода в Udhagamandalam (Tamil Nadu, Индия) (105 км)
Погода в Palakkad (Kerala, Индия) (109 км)
Погода в Coonoor (Tamil Nadu, Индия) (112 км)
Погода в Madikeri (Karnataka, Индия) (130 км)
Погода в Kochi (Kerala, Индия) (140 км)
Погода в Coimbatore (Tamil Nadu, Индия) (141 км)
Погода в Chamarajnagar (Karnataka, Индия) (146 км)

Пояснения к столбцам:

Ветер - указаны скорость ветра в м/с - средняя за 10 мин, порывы в срок и между сроками (в фигурных скобках) и направление, откуда дует ветер: С - северный, СВ - северо-восточный, В - восточный, ЮВ - юго-восточный, Ю - южный, ЮЗ - юго-западный, З - западный, СЗ - северо-западный.
Видимость - горизонтальная дальность видимости в метрах или километрах. При видимости от 1 до 10 км при отсутствии осадков обычно наблюдается дымка, при ухудшении видимости до 1 км и менее - туман. В сухую погоду видимость может ухудшаться дымом, пылью или мглою.
Явления - указаны атмосферные явления, наблюдавшиеся в срок или в последний час перед сроком; фигурными скобками обозначены явления, наблюдавшиеся между сроками (за 1-3 часа до срока); квадратными скобками обозначены град или гололедные отложения с указанием их диаметра в мм.
Облачность - указаны через наклонную черту общая и нижняя облачность в баллах и высота нижней границы облаков в метрах; квадратными скобками обозначены формы облаков: Ci - перистые, Cs - перисто-слоистые, Cc - перисто-кучевые, Ac - высококучевые, As - высокослоистые, Sc - слоисто-кучевые, Ns - слоисто-дождевые, Cu - кучевые, Cb - кучево-дождевые. Подробнее классификацию облаков см. в Атласе облаков (PDF).
T - Температура воздуха - температура, измеренная на высоте 2 м над землей.
Td - Температура точки росы - температура, при понижении до которой содержащийся в воздухе водяной пар достигнет насыщения.
f - Относительная влажность воздуха - влажноcть воздуха, измеренная на высоте 2 м над землей.
Te - Эффективная температура - температура, которую ощущает одетый по сезону человек в тени. Характеристика душности погоды. При расчете учитывается влияние влажности воздуха и скорости ветра на теплоощущения человека.
Tes - Эффективная температура на солнце - температура, которую ощущает человек, с поправкой на солнечный нагрев. Характеристика знойности погоды. Зависит от высоты солнца над горизонтом, облачности и скорости ветра. Ночью, в пасмурную погоду, а также при ветре 12 м/с и более поправка равна нулю.
P - Атмосферное давление - приведенное к уровню моря атмосферное давление.
Po - Атмосферное давление - измеренное на уровне метеостанции атмосферное давление.
Tmin - Минимальная температура - минимум температуры воздуха на высоте 2 м над землей.
Tmax - Максимальная температура - максимум температуры воздуха на высоте 2 м над землей.
R - Количество осадков - Количество выпавших осадков за период времени, мм. При наведении курсора мыши на число - период времени, за который выпало указанное количество осадков.
R24 - Количество осадков - Количество выпавших осадков за 24 часа, мм.
S - Снежный покров - Высота снежного покрова, см. При наведении курсора мыши на число - состояние снежного покрова и степень покрытия местности в баллах.